Location: Albany
(35.0170°S, 117.8920°E)
Time: 17:35:01
(UTC+08:00)

Transit 2A - Pass Details

Date: 29 January 2021
Orbit: 601 x 958 km, 66.7° (Epoch: 02 March)

Event Time Altitude Azimuth Distance (km) Brightness Sun altitude
Rises 00:30:12 0° 212° (SSW) 3,582 10.1 -36.9°
Reaches altitude 10° 00:32:44 10° 215° (SW) 2,665 9.3 -36.9°
Enters shadow 00:35:52 30° 226° (SW) 1,629 7.9 -36.9°
Maximum altitude 00:38:55 59° 292° (WNW) 1,099 - -36.8°
Drops below altitude 10° 00:45:07 10° 10° (N) 2,676 - -36.7°
Sets 00:47:40 0° 14° (NNE) 3,598 - -36.6°
